Voltar ao catálogo

STARLINK-32647

AtivoComunicaçõesVLEO
NORAD 62200·PAYLOAD·🇺🇸 United States

Lançado Dec 4, 2024 de Cape Canaveral Space Force Station

Loading…

Próximas Passagens (próximas 24 horas)

TLE

AtualizadoSource: CelesTrak SupGP

Época: Sep 15, 2026, 02:31 UTC

1 62200C 24229J   26258.10534722  .00006755  00000+0  24461-3 0  2586
2 62200  43.0011 281.0947 0001556 266.2491 283.4868 15.27581428    12

Acompanhe STARLINK-32647 em tempo real com AllMySat

Download on the App Store